• In Uzbekistan
  • List of Countries
  • For 7 days
  • Water Temperature
  • Satellite Maps
  • Weather Map
  • Weather Widgets
  • user-avatar
    Login

    Hourly Weather Mendoza

    Today, 29 May, Monday

    Time Temperature Precipitation Wind Pressure Humidity
    00:00 +8°C° 0 mm 1 mps 700 mmHg 66%
    01:00 +8°C° 0 mm 1 mps 699 mmHg 65%
    02:00 +8°C° 0 mm 1 mps 699 mmHg 65%
    03:00 +8°C° 0 mm 1 mps 699 mmHg 66%
    04:00 +7°C° 0 mm 1 mps 699 mmHg 66%
    05:00 +8°C° 0 mm 1 mps 699 mmHg 65%
    06:00 +8°C° 0 mm 1 mps 699 mmHg 64%
    07:00 +8°C° 0 mm 1 mps 700 mmHg 63%
    08:00 +10°C° 0 mm 1 mps 700 mmHg 56%
    09:00 +11°C° 0 mm 1 mps 701 mmHg 50%
    10:00 +13°C° 0 mm 1 mps 701 mmHg 43%
    11:00 +14°C° 0 mm 1 mps 701 mmHg 42%
    12:00 +14°C° 0 mm 2 mps 701 mmHg 41%
    13:00 +15°C° 0 mm 2 mps 700 mmHg 39%
    14:00 +15°C° 0 mm 2 mps 700 mmHg 42%
    15:00 +14°C° 0 mm 2 mps 700 mmHg 45%
    16:00 +14°C° 0 mm 2 mps 700 mmHg 47%
    17:00 +13°C° 0 mm 2 mps 700 mmHg 50%
    18:00 +12°C° 0 mm 2 mps 701 mmHg 53%
    19:00 +10°C° 0 mm 2 mps 701 mmHg 55%
    20:00 +11°C° 0 mm 1 mps 701 mmHg 55%
    21:00 +11°C° 0 mm 1 mps 701 mmHg 55%
    22:00 +11°C° 0 mm 1 mps 702 mmHg 55%
    23:00 +11°C° 0 mm 1 mps 702 mmHg 56%

    Tomorrow, 30 May, Tuesday

    Time Temperature Precipitation Wind Pressure Humidity
    00:00 +10°C° 0 mm 1 mps 702 mmHg 57%
    01:00 +10°C° 0 mm 1 mps 702 mmHg 57%
    02:00 +10°C° 0 mm 1 mps 702 mmHg 59%
    03:00 +10°C° 0 mm 1 mps 702 mmHg 60%
    04:00 +10°C° 0 mm 1 mps 701 mmHg 61%
    05:00 +10°C° 0 mm 1 mps 702 mmHg 62%
    06:00 +9°C° 0 mm 1 mps 702 mmHg 63%
    07:00 +9°C° 0 mm 1 mps 702 mmHg 63%
    08:00 +11°C° 0 mm 1 mps 702 mmHg 57%
    09:00 +13°C° 0 mm 1 mps 703 mmHg 50%
    10:00 +14°C° 0 mm 2 mps 703 mmHg 44%
    11:00 +15°C° 0 mm 2 mps 703 mmHg 41%
    12:00 +16°C° 0 mm 2 mps 702 mmHg 39%
    13:00 +17°C° 0 mm 2 mps 702 mmHg 36%
    14:00 +17°C° 0 mm 2 mps 702 mmHg 38%
    15:00 +16°C° 0 mm 2 mps 702 mmHg 40%
    16:00 +16°C° 0 mm 2 mps 701 mmHg 43%
    17:00 +14°C° 0 mm 2 mps 702 mmHg 46%
    18:00 +13°C° 0 mm 2 mps 702 mmHg 49%
    19:00 +12°C° 0 mm 1 mps 702 mmHg 53%
    20:00 +12°C° 0 mm 2 mps 702 mmHg 53%
    21:00 +10°C° 0 mm 2 mps 702 mmHg 53%
    22:00 +10°C° 0 mm 2 mps 702 mmHg 54%
    23:00 +10°C° 0 mm 2 mps 702 mmHg 54%

    Day after tomorrow, 31 May, Wednesday

    Time Temperature Precipitation Wind Pressure Humidity
    00:00 +9°C° 0 mm 2 mps 702 mmHg 55%
    01:00 +9°C° 0 mm 2 mps 701 mmHg 55%
    02:00 +9°C° 0 mm 2 mps 701 mmHg 56%
    03:00 +8°C° 0 mm 2 mps 701 mmHg 57%
    04:00 +8°C° 0 mm 2 mps 701 mmHg 57%
    05:00 +8°C° 0 mm 2 mps 701 mmHg 57%
    06:00 +8°C° 0 mm 2 mps 701 mmHg 57%
    07:00 +9°C° 0 mm 1 mps 701 mmHg 57%
    08:00 +10°C° 0 mm 2 mps 702 mmHg 51%
    09:00 +13°C° 0 mm 2 mps 702 mmHg 44%
    10:00 +15°C° 0 mm 2 mps 702 mmHg 38%
    11:00 +16°C° 0 mm 3 mps 702 mmHg 36%
    12:00 +17°C° 0 mm 3 mps 701 mmHg 35%
    13:00 +18°C° 0 mm 4 mps 700 mmHg 33%
    14:00 +17°C° 0 mm 3 mps 700 mmHg 36%
    15:00 +17°C° 0 mm 3 mps 700 mmHg 40%
    16:00 +16°C° 0 mm 3 mps 700 mmHg 43%
    17:00 +15°C° 0 mm 2 mps 700 mmHg 46%
    18:00 +13°C° 0 mm 2 mps 700 mmHg 49%
    19:00 +12°C° 0 mm 2 mps 700 mmHg 52%
    20:00 +12°C° 0 mm 2 mps 700 mmHg 53%
    21:00 +10°C° 0 mm 2 mps 699 mmHg 54%
    22:00 +10°C° 0 mm 2 mps 699 mmHg 56%
    23:00 +9°C° 0 mm 2 mps 699 mmHg 59%

    1 June, Thursday

    Time Temperature Precipitation Wind Pressure Humidity
    00:00 +9°C° 0 mm 2 mps 698 mmHg 62%
    01:00 +9°C° 0 mm 1 mps 698 mmHg 65%
    02:00 +8°C° 0 mm 2 mps 698 mmHg 66%
    03:00 +8°C° 0 mm 2 mps 698 mmHg 67%
    04:00 +8°C° 0 mm 2 mps 697 mmHg 68%
    05:00 +8°C° 0 mm 2 mps 698 mmHg 68%
    06:00 +7°C° 0 mm 2 mps 698 mmHg 68%
    07:00 +7°C° 0 mm 2 mps 698 mmHg 69%
    08:00 +9°C° 0 mm 2 mps 698 mmHg 63%
    09:00 +12°C° 0 mm 2 mps 698 mmHg 57%
    10:00 +14°C° 0 mm 2 mps 698 mmHg 51%
    11:00 +15°C° 0 mm 2 mps 698 mmHg 48%
    12:00 +16°C° 0 mm 2 mps 697 mmHg 44%
    13:00 +17°C° 0 mm 2 mps 697 mmHg 41%
    14:00 +16°C° 0 mm 2 mps 697 mmHg 44%
    15:00 +16°C° 0 mm 2 mps 697 mmHg 47%
    16:00 +15°C° 0 mm 1 mps 697 mmHg 50%
    17:00 +14°C° 0 mm 2 mps 698 mmHg 54%
    18:00 +13°C° 0 mm 2 mps 698 mmHg 57%
    19:00 +12°C° 0 mm 2 mps 698 mmHg 61%
    20:00 +10°C° 0 mm 2 mps 698 mmHg 62%
    21:00 +10°C° 0 mm 2 mps 698 mmHg 64%
    22:00 +10°C° 0 mm 1 mps 698 mmHg 65%
    23:00 +9°C° 0 mm 2 mps 698 mmHg 67%

    2 June, Friday

    Time Temperature Precipitation Wind Pressure Humidity
    00:00 +9°C° 0 mm 2 mps 698 mmHg 68%
    01:00 +9°C° 0 mm 2 mps 697 mmHg 69%
    02:00 +8°C° 0 mm 2 mps 697 mmHg 70%
    03:00 +8°C° 0 mm 2 mps 697 mmHg 71%
    04:00 +8°C° 0 mm 2 mps 697 mmHg 72%
    05:00 +8°C° 0 mm 2 mps 697 mmHg 73%
    06:00 +8°C° 0 mm 2 mps 697 mmHg 73%
    07:00 +8°C° 0 mm 2 mps 697 mmHg 73%
    08:00 +10°C° 0 mm 2 mps 697 mmHg 68%
    09:00 +12°C° 0 mm 2 mps 697 mmHg 63%
    10:00 +14°C° 0 mm 2 mps 697 mmHg 58%
    11:00 +15°C° 0 mm 2 mps 696 mmHg 55%
    12:00 +16°C° 0 mm 2 mps 695 mmHg 52%
    13:00 +17°C° 0 mm 3 mps 695 mmHg 49%
    14:00 +16°C° 0 mm 2 mps 694 mmHg 51%
    15:00 +16°C° 0 mm 2 mps 694 mmHg 53%
    16:00 +15°C° 0 mm 2 mps 694 mmHg 55%
    17:00 +14°C° 0 mm 2 mps 694 mmHg 58%
    18:00 +13°C° 0 mm 2 mps 694 mmHg 62%
    19:00 +11°C° 0 mm 3 mps 694 mmHg 65%
    20:00 +11°C° 0 mm 3 mps 695 mmHg 66%
    21:00 +10°C° 0 mm 3 mps 695 mmHg 68%
    22:00 +10°C° 0 mm 3 mps 695 mmHg 69%
    23:00 +10°C° 0 mm 3 mps 695 mmHg 70%

    3 June, Saturday

    Time Temperature Precipitation Wind Pressure Humidity
    00:00 +10°C° 0 mm 4 mps 695 mmHg 71%
    01:00 +10°C° 0 mm 4 mps 695 mmHg 72%
    02:00 +8°C° 0 mm 4 mps 696 mmHg 73%
    03:00 +9°C° 0 mm 3 mps 696 mmHg 74%
    04:00 +9°C° 0 mm 3 mps 697 mmHg 75%
    05:00 +8°C° 0.1 mm 4 mps 698 mmHg 75%
    06:00 +8°C° 0.1 mm 4 mps 699 mmHg 76%
    07:00 +8°C° 0.1 mm 4 mps 700 mmHg 77%
    08:00 +8°C° 0.1 mm 4 mps 700 mmHg 71%
    09:00 +10°C° 0.1 mm 4 mps 701 mmHg 64%
    10:00 +10°C° 0.1 mm 4 mps 701 mmHg 58%
    11:00 +11°C° 0 mm 4 mps 700 mmHg 53%
    12:00 +11°C° 0 mm 4 mps 700 mmHg 49%
    13:00 +12°C° 0 mm 3 mps 700 mmHg 44%
    14:00 +12°C° 0 mm 3 mps 699 mmHg 44%
    15:00 +11°C° 0 mm 3 mps 699 mmHg 43%
    16:00 +12°C° 0 mm 2 mps 699 mmHg 43%
    17:00 +10°C° 0 mm 2 mps 699 mmHg 45%
    18:00 +9°C° 0 mm 2 mps 700 mmHg 47%
    19:00 +8°C° 0 mm 2 mps 700 mmHg 48%
    20:00 +7°C° 0 mm 2 mps 700 mmHg 48%
    21:00 +8°C° 0 mm 1 mps 700 mmHg 48%
    22:00 +8°C° 0 mm 1 mps 699 mmHg 48%
    23:00 +7°C° 0 mm 1 mps 699 mmHg 48%
    Show more